NOAA 16 DEB

Satellite information

Favourite Embed

Satellite Type and Status

DEBRISIN ORBIT

Key statistics

Satellite NOAA 16 DEB at a glance.

Uptime

9166

Days in orbit

Revolutions

≈ 14.0

Per day

Orbit

SSO

Sun Synchronous Orbit

Inclination

98.9

Latest

Satellite identification and parameters

Extended collection of information and parameters for NOAA 16 DEB.

Object identification

Identified? True

Debris? True

Object name: NOAA 16 DEB

International designator: 2000-055BG

Object number (NORAD): 41097

Object ID (CCSDS): 41097

Country: UNITED STATES OF AMERICA (US)

Current information (Y/N): Y

RCS size: SMALL

Orbital parameters

Period: 102.839 minutes

Inclination: 98.9067 deg

SMA: 7271.085 km

Apoapsis: 959.874 km

Periapsis: 826.025 km

RAAN: 259.6456 deg

Eccentricy: 0.00920418

Argument of periapsis: 92.0713 deg

Mean anomaly: 269.0995 deg

Mean motion: 14.00244794 rev/day

Mean motion (dot): 0.00002911 rev/day2

B* drag term: 0.0019263369 1/REarth

Two-line elements (TLE)

Creation date: Oct. 26, 2025, 2:54 a.m.

Reference frame: TEME

Reference center: EARTH

Epoch: Oct. 25, 2025, 8:41 a.m. UTC

TLE line 0: 0 NOAA 16 DEB

TLE line 1: 1 41097U 00055BG 25298.36185570 .00002911 00000-0 19263-2 0 9998

TLE line 2: 2 41097 98.9067 259.6456 0092042 92.0713 269.0995 14.00244794503157

Live tracking on map

Real-time ground track for satellite NOAA 16 DEB.

In-orbit conjunctions

A list of the most updated potential collisions computed for object NOAA 16 DEB.

Target Orbit TCA Probability of collision Miss distance Type
COSMOS 1275 DEB LEO 2025-03-30 02:46:33 0.0001623028 121.0 (m) DEBRIS
CZ-6A DEB LEO 2025-02-06 10:27:12 0.0001562199 853.0 (m) DEBRIS
SL-8 R/B LEO 2024-12-01 16:13:47 0.001869237 63.0 (m) ROCKET BODY

Associated space launch

The NOAA K, L and M POES satellites begin the fifth generation of improved environmental monitoring in support of NOAA missions. The instrument payload has significant improvements and additions/deletions. The instrument changes have effected the spacecraft subsystems and data formats.

NOAA 16 DEB was lifted into orbit during the mission ‘Titan II SLV | NOAA 16’, on board a Titan II SLV space rocket.

The launch took place on Sept. 21, 2000, 10:22 a.m. from Space Launch Complex 4W.

For more information about the launch, click the button.

Launch to space Titan II SLV | NOAA 16
Titan II SLV | NOAA 16

Agency: N/A

Status: Launch Successful

Launch date: Sept. 21, 2000, 10:22 a.m. UTC

Rocket: Titan II SLV

Launch pad: Space Launch Complex 4W

Location: Vandenberg SFB, CA, USA

...

Latest news about this satellite

There are no fresh news available about this satellite. Check back as we update our databases every day.


Newsletter sign-up

Weekly statistics, charts and insights to help you stay on top of the space industry.